Weather History for Walterboro, SC

Change the Weather History Date:

Monday, November 26, 2012

  Actual Average Record
Temperature  
Mean Temperature 50 °F -  
Max Temperature 68 °F 68 °F 73 °F (2011)
Min Temperature 32 °F 42 °F 32 °F (2012)
Degree Days  
Heating Degree Days 15    
Moisture  
Dew Point 31 °F    
Average Humidity 64    
Maximum Humidity 100    
Minimum Humidity 17    
Precipitation  
Precipitation 0.00 in - - ()
Sea Level Pressure  
Sea Level Pressure 30.20 in    
Wind  
Wind Speed 1 mph (SSW)    
Max Wind Speed 8 mph    
Max Gust Speed -    
Visibility 9 miles    
Events Fog    
Averages and records for this station are not official NWS values.
T = Trace of Precipitation, MM = Missing Value Source: NWS Daily Summary

Daily Weather History Graph

Daily Weather History Graph

Search for Another Location

Airport:

Trip Planner

Search our weather history database for the weather conditions in past years. The results will help you decide how hot, cold, wet, or windy it might be!

Date:

Astronomy

Nov. 26, 2012 Rise Set
Actual Time 7:03 AM EST 5:16 PM EST
Civil Twilight 6:36 AM EST 5:43 PM EST
Nautical Twilight 6:06 AM EST 6:13 PM EST
Astronomical Twilight 5:36 AM EST 6:43 PM EST
Moon 4:05 PM EST (11/26) 5:15 AM EST (11/26)
Length of Visible Light 11h 06m
Length of Day
10h 13m
Waxing Gibbous, 97% of the Moon is Illuminated
Nov 26
Waxing Gibbous
Nov 28
Full
Dec 6
Last Quarter
Dec 13
New
Dec 20
First Quarter

Hourly Weather History & Observations

Time (EST) Temp. Windchill Dew Point Humidity Pressure Visibility Wind Dir Wind Speed Gust Speed Precip Events Conditions
12:15 AM 35.6 °F - 35.6 °F 100% 30.15 in 5.0 mi Calm Calm - N/A   Clear
12:35 AM 35.6 °F - 35.6 °F 100% 30.15 in 10.0 mi Calm Calm - N/A   Clear
12:55 AM 35.6 °F - 35.6 °F 100% 30.14 in 0.8 mi Calm Calm - N/A   Overcast
1:15 AM 33.8 °F - 33.8 °F 100% 30.15 in 3.0 mi Calm Calm - N/A   Scattered Clouds
1:35 AM 33.8 °F - 33.8 °F 100% 30.15 in 1.0 mi Calm Calm - N/A   Mist
1:55 AM 33.8 °F - 33.8 °F 100% 30.15 in 0.2 mi Calm Calm - N/A Fog Fog
2:15 AM 33.8 °F - 33.8 °F 100% 30.16 in 0.8 mi Calm Calm - N/A   Overcast
2:35 AM 32.0 °F - 32.0 °F 100% 30.16 in 10.0 mi Calm Calm - N/A   Scattered Clouds
2:55 AM 32.0 °F - 32.0 °F 100% 30.16 in 10.0 mi Calm Calm - N/A   Clear
3:15 AM 32.0 °F - 32.0 °F 100% 30.16 in 10.0 mi Calm Calm - N/A   Clear
3:35 AM 32.0 °F - 32.0 °F 100% 30.16 in 10.0 mi Calm Calm - N/A   Clear
3:55 AM 32.0 °F - 32.0 °F 100% 30.16 in 10.0 mi Calm Calm - N/A   Clear
4:15 AM 32.0 °F - 32.0 °F 100% 30.16 in 10.0 mi Calm Calm - N/A   Clear
4:35 AM 32.0 °F - 32.0 °F 100% 30.16 in 10.0 mi Calm Calm - N/A   Clear
4:55 AM 32.0 °F - 32.0 °F 100% 30.17 in 10.0 mi Calm Calm - N/A   Clear
5:15 AM 32.0 °F - 30.2 °F 93% 30.18 in 10.0 mi Calm Calm - N/A   Clear
5:35 AM 32.0 °F - 30.2 °F 93% 30.19 in 10.0 mi Calm Calm - N/A   Clear
5:55 AM 32.0 °F - 32.0 °F 100% 30.20 in 10.0 mi Calm Calm - N/A   Clear
6:15 AM 32.0 °F - 32.0 °F 100% 30.20 in 10.0 mi Calm Calm - N/A   Clear
6:55 AM 32.0 °F - 30.2 °F 93% 30.21 in 10.0 mi Calm Calm - N/A   Clear
7:15 AM 32.0 °F - 30.2 °F 93% 30.22 in 10.0 mi Calm Calm - N/A   Clear
7:35 AM 32.0 °F - 32.0 °F 100% 30.23 in 10.0 mi Calm Calm - N/A   Clear
7:55 AM 33.8 °F - 32.0 °F 93% 30.23 in 10.0 mi Calm Calm - N/A   Clear
8:15 AM 37.4 °F - 33.8 °F 87% 30.24 in 10.0 mi Calm Calm - N/A   Clear
8:55 AM 44.6 °F - 32.0 °F 61% 30.26 in 10.0 mi Calm Calm - N/A   Clear
9:15 AM 48.2 °F - 32.0 °F 54% 30.27 in 10.0 mi WSW 4.6 mph - N/A   Clear
9:35 AM 51.8 °F - 30.2 °F 44% 30.26 in 10.0 mi West 3.5 mph - N/A   Clear
9:55 AM 53.6 °F - 32.0 °F 44% 30.26 in 10.0 mi Calm Calm - N/A   Clear
10:15 AM 55.4 °F - 28.4 °F 36% 30.26 in 10.0 mi West 3.5 mph - N/A   Clear
10:35 AM 59.0 °F - 26.6 °F 29% 30.26 in 10.0 mi WSW 3.5 mph - N/A   Clear
10:55 AM 60.8 °F - 28.4 °F 29% 30.25 in 10.0 mi SW 5.8 mph - N/A   Clear
11:15 AM 60.8 °F - 28.4 °F 29% 30.24 in 10.0 mi SSW 3.5 mph - N/A   Clear
11:35 AM 62.6 °F - 24.8 °F 24% 30.24 in 10.0 mi WNW 3.5 mph - N/A   Clear
12:15 PM 64.4 °F - 23.0 °F 21% 30.21 in 10.0 mi WNW 4.6 mph - N/A   Clear
12:35 PM 64.4 °F - 21.2 °F 19% 30.20 in 10.0 mi WSW 4.6 mph - N/A   Clear
12:55 PM 66.2 °F - 21.2 °F 18% 30.20 in 10.0 mi SW 8.1 mph - N/A   Clear
1:15 PM 68.0 °F - 23.0 °F 18% 30.19 in 10.0 mi SW 6.9 mph - N/A   Clear
1:35 PM 68.0 °F - 21.2 °F 17% 30.19 in 10.0 mi SW 8.1 mph - N/A   Clear
1:55 PM 68.0 °F - 21.2 °F 17% 30.19 in 10.0 mi SSW 4.6 mph - N/A   Clear
2:15 PM 68.0 °F - 23.0 °F 18% 30.18 in 10.0 mi SSW 6.9 mph - N/A   Clear
2:35 PM 68.0 °F - 21.2 °F 17% 30.18 in 10.0 mi SSW 8.1 mph - N/A   Clear
2:55 PM 68.0 °F - 23.0 °F 18% 30.18 in 10.0 mi SSW 6.9 mph - N/A   Clear
3:15 PM 68.0 °F - 23.0 °F 18% 30.17 in 10.0 mi SW 6.9 mph - N/A   Clear
3:35 PM 68.0 °F - 23.0 °F 18% 30.17 in 10.0 mi SSW 5.8 mph - N/A   Clear
3:55 PM 68.0 °F - 23.0 °F 18% 30.17 in 10.0 mi SW 5.8 mph - N/A   Clear
4:15 PM 66.2 °F - 26.6 °F 23% 30.17 in 10.0 mi South 5.8 mph - N/A   Clear
4:35 PM 64.4 °F - 30.2 °F 28% 30.18 in 10.0 mi SSE 4.6 mph - N/A   Clear
5:15 PM 59.0 °F - 32.0 °F 36% 30.18 in 10.0 mi SSE 4.6 mph - N/A   Clear
5:35 PM 55.4 °F - 32.0 °F 41% 30.18 in 10.0 mi SE 3.5 mph - N/A   Clear
5:55 PM 53.6 °F - 32.0 °F 44% 30.19 in 10.0 mi Calm Calm - N/A   Clear
6:15 PM 51.8 °F - 33.8 °F 50% 30.19 in 10.0 mi SE 4.6 mph - N/A   Clear
6:55 PM 50.0 °F - 33.8 °F 54% 30.20 in 10.0 mi Calm Calm - N/A   Clear
7:15 PM 50.0 °F - 33.8 °F 54% 30.21 in 10.0 mi Calm Calm - N/A   Clear
7:35 PM 46.4 °F 45.2 °F 35.6 °F 66% 30.21 in 10.0 mi SE 3.5 mph - N/A   Clear
7:55 PM 48.2 °F - 35.6 °F 62% 30.22 in 10.0 mi Calm Calm - N/A   Clear
8:15 PM 46.4 °F 45.2 °F 35.6 °F 66% 30.21 in 10.0 mi SE 3.5 mph - N/A   Clear
8:35 PM 46.4 °F - 35.6 °F 66% 30.21 in 10.0 mi Calm Calm - N/A   Clear
8:55 PM 44.6 °F - 33.8 °F 66% 30.22 in 10.0 mi Calm Calm - N/A   Clear
9:15 PM 41.0 °F - 33.8 °F 76% 30.23 in 10.0 mi Calm Calm - N/A   Clear
9:35 PM 41.0 °F - 33.8 °F 76% 30.22 in 10.0 mi Calm Calm - N/A   Clear
9:55 PM 37.4 °F - 33.8 °F 87% 30.22 in 10.0 mi Calm Calm - N/A   Clear
10:15 PM 41.0 °F - 33.8 °F 76% 30.23 in 10.0 mi Calm Calm - N/A   Clear
10:35 PM 41.0 °F - 33.8 °F 76% 30.21 in 10.0 mi Calm Calm - N/A   Clear
10:55 PM 37.4 °F - 33.8 °F 87% 30.22 in 10.0 mi Calm Calm - N/A   Clear
11:15 PM 37.4 °F - 33.8 °F 87% 30.21 in 10.0 mi Calm Calm - N/A   Clear
11:35 PM 37.4 °F - 33.8 °F 87% 30.21 in 10.0 mi Calm Calm - N/A   Clear
11:55 PM 37.4 °F - 33.8 °F 87% 30.21 in 10.0 mi Calm Calm - N/A   Clear